Location: Sobotiste
(48.7170°N, 17.4000°E)
Time: 17:33:06
(UTC+02:00)

MOZHAYETS 4 - Pass Details

Date: 23 March 2026
Orbit: 642 x 659 km, 98.3° (Epoch: 15 April)

Event Time Altitude Azimuth Distance (km) Brightness Sun altitude
Rises 03:17:30 0° 119° (ESE) 2,981 11.4 -24.2°
Reaches altitude 10° 03:20:20 10° 100° (E) 2,071 10.9 -23.8°
Maximum altitude 03:23:18 18° 59° (ENE) 1,629 10.6 -23.4°
Drops below altitude 10° 03:26:15 10° 18° (NNE) 2,075 10.9 -23.0°
Sets 03:29:05 0° 359° (N) 2,988 11.5 -22.6°
